SL-24 R/B, 40303

Orbit data source: Space-Track

SL-24 R/B, 40303 is space debris in SSO originally from a launch on Thu, 06 Nov 2014 UTC launched from the Orenburg, Russia (OREN). Debris objects in space refer to the collection of defunct objects orbiting the Earth. Examples of debris include non-operational satellites, rocket bodies, and fragments generated from explosions, collisions, or faulty payload assembly.

Loading next visibility...
Identifier
40303, 2014-070F
Orbit
SSO
Country
Flag of CISCIS
Related business
Manufacturer
Yuzhnoe
Mission
Spacecraft
Bus & Motor
15A18-BR, Unknown motor
Mass
~1,000 kg wet, ~1,000 kg dry
Launch date (UTC)
2014-11-06 (11 years ago)
Launch vehicle
Unknown
Launch site
Orenburg, Russia (OREN)
Object type
Payload
Rocket body
Debris
Shape & HBR
Cyl, 1.5 m
Radar Cross Section
10.603 m², Large (>1 m²)

Expand to show TLE details & history
Last TLE update: 21 hours ago

TLE from 21 hours ago
0 SL-24 R/B
1 40303U 14070F   26033.43314634  .00000228  00000-0  58813-4 0  9995
2 40303  97.1686 331.6311 0948316 169.2749 193.0270 13.15194449538915
Epoch: 2026-02-02T10:23Z
TLE epoch observation values (Epoch: 2026-02-02T10:23:43.843Z)
Latitude
-0°
Longitude
43.06992°
Altitude
1,909.595 km
Speed
6.607 km/s
True Right ascension
22h 06m 31s
True Declination
0° 00' 00"
Sunlit
Object was in daylight at epoch
Visualization orbit readout
Latitude
Unknown
Longitude
Unknown
Altitude
Unknown
Speed
Unknown
Apparent Right ascension
Unknown
Apparent Declination
Unknown
Sunlit
N/A
Visualization observer readout
Local Sidereal Time
08:47:59
Azimuth
Unknown
Elevation
Unknown
Doppler factor
Unknown
Orbital elements
Apogee altitude
1,919.008 km
Perigee altitude
481.652 km
Semi-major axis
7,578.467 km
Eccentricity
0.09483
Inclination
97.1686°
RAAN
331.6311°
Arg. of periapsis
169.2749°
True anomaly
190.8325°
Mean anomaly
193.027°
Eccentric anomaly
191.90604°
Mean motion
3.28981 °/min
Orbital period
109.43 mins
BSTAR
0.000058813
Loading maneuver chart data...
Computing Atmospheric mass density...
Loading historical data...
Loading historical data...
Loading historical data...
Loading historical data...
Loading historical data...
Loading historical data...
Loading historical data...

Documentation

Showing up to 5 results
|